When you browse on this site, cookies collect data to enhance your experience and personalize the content and advertising you see.
Visit our Privacy Policy to learn more. By continuing to use the site, you agree to this use of cookies and data.
  • In France
  • List of Countries
  • For 7 days
  • Water Temperature
  • Satellite Maps
  • Weather Map
  • Weather Widgets
  • user-avatar
    Login

    Hourly Weather Chadakolob

    Today, 11 December, Tuesday

    Time Temperature Precipitation Wind Pressure Humidity
    00:00 -2°C° 0 mm 3 mps 612 mmHg 64%
    01:00 -2°C° 0 mm 3 mps 612 mmHg 63%
    02:00 -2°C° 0 mm 3 mps 612 mmHg 63%
    03:00 -3°C° 0 mm 2 mps 612 mmHg 59%
    04:00 -2°C° 0 mm 2 mps 612 mmHg 59%
    05:00 -2°C° 0 mm 3 mps 612 mmHg 58%
    06:00 -2°C° 0 mm 3 mps 612 mmHg 57%
    07:00 -1°C° 0 mm 3 mps 612 mmHg 58%
    08:00 0°C° 0 mm 3 mps 613 mmHg 58%
    09:00 +1°C° 0 mm 3 mps 613 mmHg 56%
    10:00 +2°C° 0 mm 3 mps 613 mmHg 57%
    11:00 +3°C° 0 mm 3 mps 613 mmHg 58%
    12:00 +5°C° 0 mm 3 mps 613 mmHg 59%
    13:00 +4°C° 0 mm 3 mps 613 mmHg 62%
    14:00 +4°C° 0 mm 4 mps 613 mmHg 64%
    15:00 +3°C° 0 mm 4 mps 612 mmHg 66%
    16:00 +1°C° 0 mm 4 mps 612 mmHg 69%
    17:00 +1°C° 0 mm 4 mps 611 mmHg 72%
    18:00 0°C° 0 mm 4 mps 611 mmHg 75%
    19:00 0°C° 0 mm 4 mps 611 mmHg 75%
    20:00 0°C° 0 mm 4 mps 611 mmHg 75%
    21:00 +1°C° 0 mm 3 mps 611 mmHg 76%
    22:00 0°C° 0 mm 3 mps 611 mmHg 74%
    23:00 0°C° 0 mm 3 mps 611 mmHg 73%

    Tomorrow, 12 December, Wednesday

    Time Temperature Precipitation Wind Pressure Humidity
    00:00 0°C° 0 mm 3 mps 611 mmHg 72%
    01:00 -1°C° 0.1 mm 3 mps 611 mmHg 73%
    02:00 -1°C° 0.1 mm 3 mps 612 mmHg 74%
    03:00 -1°C° 0.1 mm 3 mps 612 mmHg 75%
    04:00 -1°C° 0 mm 3 mps 612 mmHg 77%
    05:00 -2°C° 0 mm 3 mps 612 mmHg 78%
    06:00 -2°C° 0 mm 3 mps 612 mmHg 79%
    07:00 -1°C° 0 mm 3 mps 612 mmHg 73%
    08:00 -1°C° 0 mm 3 mps 613 mmHg 67%
    09:00 0°C° 0 mm 3 mps 613 mmHg 61%
    10:00 +1°C° 0.2 mm 3 mps 612 mmHg 64%
    11:00 +1°C° 0.2 mm 3 mps 612 mmHg 66%
    12:00 +2°C° 0.2 mm 3 mps 612 mmHg 69%
    13:00 +2°C° 0.8 mm 3 mps 612 mmHg 71%
    14:00 +2°C° 0.8 mm 3 mps 611 mmHg 72%
    15:00 +2°C° 0.8 mm 3 mps 611 mmHg 74%
    16:00 +1°C° 0.4 mm 3 mps 611 mmHg 75%
    17:00 +1°C° 0.4 mm 3 mps 611 mmHg 75%
    18:00 0°C° 0.4 mm 3 mps 611 mmHg 76%
    19:00 0°C° 0.2 mm 3 mps 611 mmHg 77%
    20:00 0°C° 0.2 mm 3 mps 611 mmHg 77%
    21:00 0°C° 0.2 mm 3 mps 611 mmHg 78%
    22:00 0°C° 0.3 mm 3 mps 611 mmHg 79%
    23:00 0°C° 0.3 mm 3 mps 611 mmHg 79%

    Day after tomorrow, 13 December, Thursday

    Time Temperature Precipitation Wind Pressure Humidity
    00:00 0°C° 0.3 mm 3 mps 611 mmHg 80%
    01:00 -1°C° 0.2 mm 3 mps 611 mmHg 81%
    02:00 -1°C° 0.2 mm 3 mps 612 mmHg 81%
    03:00 -1°C° 0.2 mm 3 mps 612 mmHg 82%
    04:00 -2°C° 0.1 mm 3 mps 611 mmHg 82%
    05:00 -2°C° 0.1 mm 3 mps 611 mmHg 82%
    06:00 -4°C° 0.1 mm 3 mps 611 mmHg 83%
    07:00 -4°C° 0.1 mm 3 mps 611 mmHg 81%
    08:00 -2°C° 0.1 mm 2 mps 612 mmHg 78%
    09:00 -2°C° 0.1 mm 2 mps 612 mmHg 76%
    10:00 -2°C° 0.3 mm 3 mps 613 mmHg 77%
    11:00 -1°C° 0.3 mm 3 mps 613 mmHg 78%
    12:00 -1°C° 0.3 mm 3 mps 613 mmHg 78%
    13:00 -1°C° 0.5 mm 3 mps 613 mmHg 81%
    14:00 -2°C° 0.5 mm 3 mps 614 mmHg 83%
    15:00 -2°C° 0.5 mm 3 mps 614 mmHg 86%
    16:00 -3°C° 0.3 mm 2 mps 615 mmHg 87%
    17:00 -3°C° 0.3 mm 2 mps 615 mmHg 88%
    18:00 -2°C° 0.3 mm 1 mps 615 mmHg 89%
    19:00 -5°C° 0 mm 2 mps 615 mmHg 87%
    20:00 -6°C° 0 mm 2 mps 615 mmHg 85%
    21:00 -6°C° 0 mm 2 mps 615 mmHg 83%
    22:00 -7°C° 0 mm 2 mps 615 mmHg 80%
    23:00 -7°C° 0 mm 2 mps 615 mmHg 76%

    14 December, Friday

    Time Temperature Precipitation Wind Pressure Humidity
    00:00 -8°C° 0 mm 2 mps 616 mmHg 73%
    01:00 -8°C° 0 mm 2 mps 616 mmHg 74%
    02:00 -8°C° 0 mm 2 mps 616 mmHg 75%
    03:00 -8°C° 0 mm 2 mps 616 mmHg 76%
    04:00 -9°C° 0 mm 2 mps 616 mmHg 75%
    05:00 -9°C° 0 mm 2 mps 616 mmHg 74%
    06:00 -9°C° 0 mm 2 mps 616 mmHg 73%
    07:00 -8°C° 0 mm 2 mps 617 mmHg 71%
    08:00 -7°C° 0 mm 2 mps 618 mmHg 69%
    09:00 -6°C° 0 mm 2 mps 618 mmHg 68%
    10:00 -5°C° 0 mm 2 mps 618 mmHg 65%
    11:00 -4°C° 0 mm 2 mps 618 mmHg 63%
    12:00 -3°C° 0 mm 2 mps 618 mmHg 60%
    13:00 -3°C° 0 mm 2 mps 618 mmHg 62%
    14:00 -4°C° 0 mm 2 mps 618 mmHg 63%
    15:00 -4°C° 0 mm 2 mps 618 mmHg 65%
    16:00 -5°C° 0.2 mm 2 mps 618 mmHg 70%
    17:00 -5°C° 0.2 mm 2 mps 618 mmHg 75%
    18:00 -6°C° 0.2 mm 2 mps 617 mmHg 80%
    19:00 -6°C° 0.2 mm 2 mps 618 mmHg 82%
    20:00 -6°C° 0.2 mm 2 mps 618 mmHg 83%
    21:00 -4°C° 0.2 mm 1 mps 618 mmHg 85%
    22:00 -4°C° 0.2 mm 1 mps 618 mmHg 85%
    23:00 -4°C° 0.2 mm 1 mps 618 mmHg 86%

    15 December, Saturday

    Time Temperature Precipitation Wind Pressure Humidity
    00:00 -4°C° 0.2 mm 1 mps 618 mmHg 87%
    01:00 -6°C° 0.1 mm 1 mps 618 mmHg 87%
    02:00 -6°C° 0.1 mm 1 mps 618 mmHg 88%
    03:00 -6°C° 0.1 mm 1 mps 618 mmHg 88%
    04:00 -7°C° 0 mm 1 mps 618 mmHg 87%
    05:00 -7°C° 0 mm 1 mps 618 mmHg 85%
    06:00 -8°C° 0 mm 1 mps 618 mmHg 84%
    07:00 -7°C° 0 mm 1 mps 618 mmHg 80%
    08:00 -6°C° 0 mm 1 mps 619 mmHg 77%
    09:00 -4°C° 0 mm 1 mps 619 mmHg 73%
    10:00 -3°C° 0 mm 1 mps 620 mmHg 71%
    11:00 -2°C° 0 mm 1 mps 620 mmHg 68%
    12:00 -2°C° 0 mm 1 mps 620 mmHg 65%
    13:00 -2°C° 0 mm 1 mps 620 mmHg 67%
    14:00 -2°C° 0 mm 1 mps 620 mmHg 69%
    15:00 -2°C° 0 mm 1 mps 620 mmHg 71%
    16:00 -4°C° 0 mm 1 mps 620 mmHg 73%
    17:00 -6°C° 0 mm 1 mps 620 mmHg 75%
    18:00 -7°C° 0 mm 1 mps 619 mmHg 77%
    19:00 -7°C° 0 mm 1 mps 620 mmHg 73%
    20:00 -9°C° 0 mm 2 mps 620 mmHg 70%
    21:00 -9°C° 0 mm 2 mps 620 mmHg 66%
    22:00 -9°C° 0 mm 2 mps 620 mmHg 65%
    23:00 -9°C° 0 mm 2 mps 620 mmHg 63%

    16 December, Sunday

    Time Temperature Precipitation Wind Pressure Humidity
    00:00 -9°C° 0 mm 2 mps 620 mmHg 62%
    01:00 -9°C° 0 mm 2 mps 620 mmHg 62%
    02:00 -9°C° 0 mm 2 mps 620 mmHg 62%
    03:00 -9°C° 0 mm 2 mps 620 mmHg 62%
    04:00 -9°C° 0 mm 2 mps 620 mmHg 61%
    05:00 -9°C° 0 mm 2 mps 620 mmHg 60%
    06:00 -9°C° 0 mm 2 mps 620 mmHg 59%
    07:00 -7°C° 0 mm 1 mps 621 mmHg 58%
    08:00 -6°C° 0 mm 1 mps 622 mmHg 57%
    09:00 -4°C° 0 mm 1 mps 622 mmHg 55%
    10:00 -2°C° 0 mm 1 mps 622 mmHg 54%
    11:00 -1°C° 0 mm 1 mps 623 mmHg 53%
    12:00 0°C° 0 mm 1 mps 623 mmHg 52%
    13:00 0°C° 0 mm 1 mps 623 mmHg 56%
    14:00 -1°C° 0 mm 1 mps 622 mmHg 60%
    15:00 -1°C° 0 mm 1 mps 622 mmHg 64%
    16:00 -3°C° 0 mm 1 mps 622 mmHg 63%
    17:00 -4°C° 0 mm 1 mps 622 mmHg 62%
    18:00 -7°C° 0 mm 2 mps 621 mmHg 62%
    19:00 -7°C° 0 mm 2 mps 621 mmHg 60%
    20:00 -7°C° 0 mm 2 mps 621 mmHg 58%
    21:00 -8°C° 0 mm 2 mps 621 mmHg 57%
    22:00 -8°C° 0 mm 2 mps 621 mmHg 57%
    23:00 -8°C° 0 mm 2 mps 621 mmHg 57%
    Show more